This is the latest recevied weather packets stored in our database for station/object K3BAY-1. If no packets are shown the sender has not sent any weather packets the latest 10 day(s).
| Time | Temp. | Humidity | Pressure | Rain* | Wind** | Luminosity | Snow |
|---|---|---|---|---|---|---|---|
| 1777833358 | 16.11° C | 40% | 1015.9 hPa | 0 mm | - | 750 W/m² | - |
| 1777833055 | 15.56° C | 39% | 1015.9 hPa | 0 mm | - | 131 W/m² | - |
| 1777832753 | 15.56° C | 38% | 1015.9 hPa | 0 mm | - | 761 W/m² | - |
| 1777832451 | 16.67° C | 38% | 1015.9 hPa | 0 mm | - | 523 W/m² | - |
| 1777832148 | 16.67° C | 38% | 1015.6 hPa | 0 mm | - | 769 W/m² | - |
| 1777831844 | 16.11° C | 34% | 1015.3 hPa | 0 mm | - | 760 W/m² | - |
| 1777831541 | 15.56° C | 36% | 1014.9 hPa | 0 mm | - | 771 W/m² | - |
| 1777831239 | 15° C | 40% | 1014.6 hPa | 0 mm | - | 722 W/m² | - |
| 1777830936 | 15.56° C | 39% | 1014.9 hPa | 0 mm | - | 723 W/m² | - |
| 1777830633 | 15.56° C | 39% | 1014.6 hPa | 0 mm | - | 731 W/m² | - |
| 1777830330 | 14.44° C | 37% | 1014.6 hPa | 0 mm | - | 761 W/m² | - |
| 1777830026 | 15° C | 42% | 1014.6 hPa | 0 mm | - | 764 W/m² | - |
| 1777829721 | 16.11° C | 40% | 1014.9 hPa | 0 mm | - | 766 W/m² | - |
| 1777829418 | 16.11° C | 35% | 1014.6 hPa | 0 mm | - | 772 W/m² | - |
| 1777829116 | 15° C | 37% | 1014.9 hPa | 0 mm | - | 775 W/m² | - |
| 1777828813 | 15° C | 38% | 1014.9 hPa | 0 mm | - | 790 W/m² | - |
| 1777828509 | 13.89° C | 42% | 1014.9 hPa | 0 mm | - | 858 W/m² | - |
| 1777828207 | 15° C | 39% | 1015.3 hPa | 0 mm | - | 168 W/m² | - |
| 1777827903 | 15° C | 38% | 1015.3 hPa | 0 mm | - | 778 W/m² | - |
| 1777827600 | 15° C | 38% | 1014.9 hPa | 0 mm | - | 786 W/m² | - |
| 1777827298 | 14.44° C | 39% | 1014.9 hPa | 0 mm | - | 69 W/m² | - |
| 1777826994 | 14.44° C | 38% | 1015.3 hPa | 0 mm | - | 441 W/m² | - |
| 1777826691 | 14.44° C | 36% | 1015.3 hPa | 0 mm | - | 145 W/m² | - |
| 1777826387 | 13.89° C | 38% | 1015.3 hPa | 0 mm | - | 66 W/m² | - |
| 1777826085 | 13.33° C | 43% | 1015.3 hPa | 0 mm | - | 517 W/m² | - |
* Rain latest hour (hover to see other rain measurements)
** Current wind speed in m/s (hover to see current wind gust speed)